Skip Page Navigation
NASA JPL Caltech
NASA Logo - Jet Propulsion Laboratory + View the NASA Portal
+ Center for Near-Earth Object Studies
JPL Home Earth Solar System Stars & Galaxies Technology
JPL Solar System Dynamics
BODIES ORBITS EPHEMERIDES TOOLS PHYSICAL DATA DISCOVERY FAQ SITE MAP
IMPORTANT: The SSD Announcement email list is now available. Major changes are coming in the near future, including possible hostname and/or URL changes. To be notified of such changes, subscribe to this email list.

Please visit this page for more details.


JPL Small-Body Database Browser
Search: [ help ]  
413938 (2006 XS70)
Classification: Main-belt Asteroid          SPK-ID: 2413938
Ephemeris | Orbit Diagram | Orbital Elements | Mission Design | Physical Parameters | Discovery Circumstances ]

[ show orbit diagram ]
Orbital Elements at Epoch 2458600.5 (2019-Apr-27.0) TDB
Reference: JPL 12 (heliocentric ecliptic J2000)
 Element Value Uncertainty (1-sigma)   Units 
e .09356030253491696 1.3647e-07  
a 2.621838328914609 3.5247e-08 au
q 2.376538341663717 3.7853e-07 au
i 3.577403307640888 6.257e-06 deg
node 135.1691015491042 0.00014301 deg
peri 263.5511140621439 0.00015248 deg
M 24.94004164625258 4.9041e-05 deg
tp 2458493.075840917555
(2019-Jan-09.57584092)
0.00021049 TDB
period 1550.626812024226
4.25
3.1269e-05
8.561e-08
d
yr
n .2321641785169748 4.6817e-09 deg/d
Q 2.867138316165501 3.8545e-08 au
  Orbit Determination Parameters
   # obs. used (total)      129  
   data-arc span      5749 days (15.74 yr)  
   first obs. used      2003-02-06  
   last obs. used      2018-11-03  
   planetary ephem.      DE431  
   SB-pert. ephem.      SB431-N16  
   condition code      0  
   norm. resid. RMS      .64266  
   source      ORB  
   producer      Otto Matic  
   solution date      2019-Jul-14 10:37:59  

Additional Information
 Earth MOID = 1.38657 au 
 Jupiter MOID = 2.48319 au 
 T_jup = 3.395 
[ hide covariance matrix ]
Orbital Elements at Epoch 2457050.5 (2015-Jan-28.0) TDB
Reference: JPL 12 (heliocentric ecliptic J2000)
 Element Value Uncertainty (1-sigma)   Units 
e .09161839894784202 1.3627e-07  
q 2.381266781128189 3.7717e-07 au
tp 2456939.404979432985
(2014-Oct-08.90497943)
0.00020717 TDB
node 135.2129315469659 0.00014283 deg
peri 262.9019895983993 0.00015269 deg
i 3.578657012812033 6.2601e-06 deg
  Orbit Determination Parameters
   # obs. used (total)      129  
   data-arc span      5749 days (15.74 yr)  
   first obs. used      2003-02-06  
   last obs. used      2018-11-03  
   planetary ephem.      DE431  
   SB-pert. ephem.      SB431-N16  
   condition code      0  
   norm. resid. RMS      .64266  
   source      ORB  
   producer      Otto Matic  
   solution date      2019-Jul-14 10:37:59  

Additional Information
 Jupiter MOID = 2.48319 au 
 T_jup = 3.395 
Orbit Covariance (6×6)
  e q tp node peri i
e 1.856896661978683E-14 -5.128247432248959E-14 -1.719137653021638E-11 -1.848624791482927E-13 -4.673406158838596E-12 -3.851221103783716E-14
q -5.128247432248959E-14 1.422538961668066E-13 4.627200310593161E-11 5.190028898826854E-13 1.260995269693812E-11 1.07203073680895E-13
tp -1.719137653021638E-11 4.627200310593161E-11 4.292092137998142E-8 1.029817772423117E-10 1.128698743372122E-8 3.25139240276553E-11
node -1.848624791482927E-13 5.190028898826854E-13 1.029817772423117E-10 2.040028881908271E-8 -2.03296010889683E-8 3.266349285139743E-10
peri -4.673406158838596E-12 1.260995269693812E-11 1.128698743372122E-8 -2.03296010889683E-8 2.331284465674233E-8 -3.167482153882872E-10
i -3.851221103783716E-14 1.07203073680895E-13 3.25139240276553E-11 3.266349285139743E-10 -3.167482153882872E-10 3.918923792079276E-11

Ephemeris | Orbit Diagram | Orbital Elements | Mission Design | Physical Parameters | Discovery Circumstances ]

Physical Parameter Table
Parameter Symbol Value Units Sigma Reference Notes
absolute magnitude H 17.1   n/a MPO455948  

413938 (2006 XS70)          Discovered 2006-Dec-13 by Mt. Lemmon Survey at Mount Lemmon
Reference: Last Updated: 2014-11-10

Alternate Designations
 2006 XS70 = 2008 GU41 
Ephemeris | Orbit Diagram | Orbital Elements | Mission Design | Physical Parameters | Discovery Circumstances ]
ABOUT SSD CREDITS/AWARDS PRIVACY/COPYRIGHT GLOSSARY LINKS
FirstGov 2019-Dec-14 19:58 UT
(server date/time)  
NASA Home Page
Site Manager:   Ryan S. Park
Webmaster  Alan B. Chamberlin